AXM6181 WBGR-WBGG

Flight info

Callsign AXM6181
Flight time 1h 8m
Altitude 34000
Route BIPAS1B BIPAS DCT SARVO G580 PILAX
Aircraft A20N/M-SDE2E3FGHIRWXY/LB1

Departure

Time 2026-04-18 01:12
Airport Miri Airport (WBGR)

Arrival

Time 2026-04-18 02:20
Airport Kuching International Airport (WBGG)
Time Latitude Longitude Altitude Speed Heading
2026-04-18 00:42 4.32515 113.98438 62 ft 0 kts 295°
2026-04-18 00:56 4.32512 113.98445 62 ft 1 kts 295°
2026-04-18 00:56 4.32509 113.98452 57 ft 1 kts 295°
2026-04-18 00:56 4.32505 113.98459 60 ft 1 kts 295°
2026-04-18 00:57 4.32502 113.98466 59 ft 1 kts 295°
2026-04-18 00:57 4.32499 113.98473 61 ft 1 kts 295°
2026-04-18 00:57 4.32496 113.98479 62 ft 1 kts 295°
2026-04-18 00:57 4.32493 113.98486 57 ft 1 kts 295°
2026-04-18 00:58 4.32489 113.98493 53 ft 1 kts 287°
2026-04-18 00:58 4.32487 113.98500 53 ft 1 kts 280°
2026-04-18 00:58 4.32486 113.98507 55 ft 1 kts 274°
2026-04-18 00:58 4.32486 113.98514 54 ft 1 kts 267°
2026-04-18 00:59 4.32486 113.98521 55 ft 1 kts 260°
2026-04-18 00:59 4.32488 113.98528 56 ft 1 kts 248°
2026-04-18 00:59 4.32490 113.98535 53 ft 1 kts 233°
2026-04-18 00:59 4.32495 113.98541 56 ft 1 kts 220°
2026-04-18 01:00 4.32496 113.98542 56 ft 0 kts 217°
2026-04-18 01:04 4.32491 113.98538 62 ft 2 kts 217°
2026-04-18 01:05 4.32473 113.98528 57 ft 5 kts 207°
2026-04-18 01:05 4.32434 113.98508 62 ft 8 kts 207°
2026-04-18 01:05 4.32376 113.98480 56 ft 10 kts 205°
2026-04-18 01:05 4.32312 113.98453 58 ft 11 kts 204°
2026-04-18 01:06 4.32247 113.98439 54 ft 9 kts 153°
2026-04-18 01:06 4.32216 113.98474 61 ft 5 kts 131°
2026-04-18 01:06 4.32183 113.98484 65 ft 6 kts 186°
2026-04-18 01:06 4.32138 113.98462 61 ft 9 kts 205°
2026-04-18 01:07 4.32072 113.98431 63 ft 12 kts 205°
2026-04-18 01:07 4.31992 113.98394 65 ft 13 kts 201°
2026-04-18 01:07 4.31909 113.98356 66 ft 14 kts 205°
2026-04-18 01:07 4.31820 113.98315 70 ft 16 kts 204°
2026-04-18 01:08 4.31741 113.98280 67 ft 10 kts 205°
2026-04-18 01:08 4.31677 113.98250 66 ft 12 kts 205°
2026-04-18 01:08 4.31603 113.98217 68 ft 14 kts 204°
2026-04-18 01:08 4.31551 113.98194 69 ft 15 kts 203°
2026-04-18 01:09 4.31468 113.98154 63 ft 18 kts 208°
2026-04-18 01:09 4.31329 113.98088 65 ft 15 kts 204°
2026-04-18 01:09 4.31246 113.98060 66 ft 16 kts 176°
2026-04-18 01:09 4.31208 113.98089 62 ft 0 kts 118°
2026-04-18 01:11 4.31189 113.98128 61 ft 11 kts 113°
2026-04-18 01:11 4.31172 113.98184 63 ft 13 kts 96°
2026-04-18 01:12 4.31224 113.98236 61 ft 15 kts 25°
2026-04-18 01:12 4.31569 113.98397 68 ft 95 kts 25°
2026-04-18 01:12 4.32377 113.98770 153 ft 150 kts 26°
2026-04-18 01:12 4.33313 113.99240 825 ft 155 kts 28°
2026-04-18 01:13 4.34285 113.99749 1669 ft 159 kts 27°
2026-04-18 01:13 4.35116 114.00146 2350 ft 165 kts 25°
2026-04-18 01:13 4.36124 114.00587 2840 ft 182 kts 23°
2026-04-18 01:13 4.37444 114.00794 3330 ft 205 kts 358°
2026-04-18 01:14 4.38861 114.00322 3746 ft 230 kts 327°
2026-04-18 01:14 4.39955 113.99043 4195 ft 258 kts 295°
2026-04-18 01:14 4.40318 113.97573 4665 ft 274 kts 271°
2026-04-18 01:14 4.40006 113.95878 5336 ft 279 kts 245°
2026-04-18 01:15 4.38990 113.94434 6139 ft 279 kts 220°
2026-04-18 01:15 4.37553 113.93406 6891 ft 280 kts 211°
2026-04-18 01:15 4.36163 113.92523 7596 ft 283 kts 213°
2026-04-18 01:15 4.34710 113.91465 8335 ft 285 kts 218°
2026-04-18 01:16 4.33329 113.90278 9079 ft 288 kts 222°
2026-04-18 01:16 4.31880 113.88876 9893 ft 291 kts 225°
2026-04-18 01:16 4.30445 113.87395 10355 ft 306 kts 226°
2026-04-18 01:16 4.28925 113.85785 10562 ft 329 kts 227°
2026-04-18 01:17 4.27458 113.84223 10854 ft 343 kts 227°
2026-04-18 01:17 4.25989 113.82663 11450 ft 346 kts 227°
2026-04-18 01:17 4.24631 113.81224 12004 ft 349 kts 227°
2026-04-18 01:17 4.23171 113.79679 12584 ft 353 kts 227°
2026-04-18 01:18 4.21475 113.77888 13265 ft 356 kts 227°
2026-04-18 01:18 4.19759 113.76077 13897 ft 360 kts 227°
2026-04-18 01:18 4.18028 113.74249 14482 ft 364 kts 227°
2026-04-18 01:18 4.16301 113.72424 15025 ft 368 kts 227°
2026-04-18 01:19 4.14507 113.70528 15613 ft 371 kts 228°
2026-04-18 01:19 4.12719 113.68640 16152 ft 376 kts 228°
2026-04-18 01:19 4.10913 113.66734 16699 ft 379 kts 227°
2026-04-18 01:19 4.09280 113.65010 17170 ft 383 kts 227°
2026-04-18 01:20 4.07590 113.63227 17652 ft 386 kts 228°
2026-04-18 01:20 4.05757 113.61292 18150 ft 391 kts 228°
2026-04-18 01:20 4.03877 113.59309 18621 ft 393 kts 227°
2026-04-18 01:20 4.02117 113.57452 19111 ft 394 kts 227°
2026-04-18 01:21 4.00254 113.55486 19603 ft 396 kts 228°
2026-04-18 01:21 3.98329 113.53456 20086 ft 398 kts 227°
2026-04-18 01:21 3.96418 113.51440 20581 ft 400 kts 227°
2026-04-18 01:21 3.94499 113.49416 21051 ft 402 kts 227°
2026-04-18 01:22 3.92590 113.47403 21522 ft 404 kts 227°
2026-04-18 01:22 3.90720 113.45304 21982 ft 406 kts 233°
2026-04-18 01:22 3.89018 113.43041 22444 ft 408 kts 234°
2026-04-18 01:22 3.87308 113.40763 22908 ft 410 kts 234°
2026-04-18 01:23 3.85564 113.38447 23349 ft 413 kts 234°
2026-04-18 01:23 3.83831 113.36149 23737 ft 415 kts 234°
2026-04-18 01:23 3.82082 113.33832 24084 ft 418 kts 234°
2026-04-18 01:23 3.80353 113.31541 24432 ft 420 kts 234°
2026-04-18 01:24 3.78673 113.29315 24757 ft 423 kts 234°
2026-04-18 01:24 3.76895 113.26959 25102 ft 425 kts 234°
2026-04-18 01:24 3.75108 113.24591 25442 ft 427 kts 234°
2026-04-18 01:24 3.73457 113.22402 25741 ft 430 kts 234°
2026-04-18 01:25 3.71648 113.20006 26049 ft 433 kts 234°
2026-04-18 01:25 3.69828 113.17595 26364 ft 435 kts 234°
2026-04-18 01:25 3.68000 113.15172 26681 ft 437 kts 234°
2026-04-18 01:25 3.66157 113.12732 26981 ft 440 kts 234°
2026-04-18 01:26 3.64310 113.10285 27282 ft 442 kts 234°
2026-04-18 01:26 3.62467 113.07844 27569 ft 445 kts 234°
2026-04-18 01:26 3.60595 113.05366 27858 ft 447 kts 234°
2026-04-18 01:26 3.58716 113.02877 28138 ft 449 kts 234°
2026-04-18 01:27 3.56829 113.00379 28422 ft 451 kts 234°
2026-04-18 01:27 3.54930 112.97864 28693 ft 454 kts 234°
2026-04-18 01:27 3.53024 112.95340 28954 ft 456 kts 234°
2026-04-18 01:27 3.51106 112.92802 29206 ft 458 kts 234°
2026-04-18 01:28 3.49180 112.90251 29457 ft 460 kts 234°
2026-04-18 01:28 3.47245 112.87689 29720 ft 462 kts 234°
2026-04-18 01:28 3.45422 112.85275 29958 ft 464 kts 234°
2026-04-18 01:28 3.43471 112.82686 30182 ft 466 kts 235°
2026-04-18 01:29 3.41601 112.80033 30432 ft 467 kts 237°
2026-04-18 01:29 3.39778 112.77331 30675 ft 469 kts 237°
2026-04-18 01:29 3.37958 112.74619 30909 ft 470 kts 237°
2026-04-18 01:29 3.36126 112.71909 31198 ft 471 kts 237°
2026-04-18 01:30 3.34279 112.69197 31518 ft 470 kts 237°
2026-04-18 01:30 3.32458 112.66534 31835 ft 469 kts 237°
2026-04-18 01:30 3.30615 112.63845 32163 ft 468 kts 237°
2026-04-18 01:30 3.28770 112.61155 32473 ft 468 kts 237°
2026-04-18 01:31 3.26936 112.58480 32775 ft 467 kts 237°
2026-04-18 01:31 3.25221 112.55979 33049 ft 466 kts 237°
2026-04-18 01:31 3.23388 112.53307 33333 ft 466 kts 237°
2026-04-18 01:31 3.21557 112.50637 33620 ft 465 kts 237°
2026-04-18 01:32 3.19726 112.47967 33876 ft 465 kts 237°
2026-04-18 01:32 3.17896 112.45300 33933 ft 464 kts 237°
2026-04-18 01:32 3.14251 112.39988 33935 ft 463 kts 237°
2026-04-18 01:33 3.10684 112.34788 33929 ft 463 kts 237°
2026-04-18 01:33 3.07089 112.29550 33934 ft 463 kts 237°
2026-04-18 01:34 3.03445 112.24241 33934 ft 463 kts 237°
2026-04-18 01:34 2.99800 112.18933 33922 ft 463 kts 237°
2026-04-18 01:35 2.96163 112.13635 33931 ft 463 kts 237°
2026-04-18 01:35 2.92845 112.08801 33931 ft 463 kts 237°
2026-04-18 01:36 2.89147 112.03537 33925 ft 463 kts 232°
2026-04-18 01:36 2.84958 111.98792 33933 ft 464 kts 229°
2026-04-18 01:37 2.80647 111.93985 33932 ft 464 kts 229°
2026-04-18 01:37 2.76336 111.89172 33933 ft 464 kts 229°
2026-04-18 01:38 2.72531 111.84927 33934 ft 465 kts 229°
2026-04-18 01:38 2.68351 111.80265 33935 ft 465 kts 229°
2026-04-18 01:39 2.64030 111.75448 33945 ft 465 kts 229°
2026-04-18 01:39 2.59716 111.70638 33935 ft 464 kts 229°
2026-04-18 01:40 2.55402 111.65828 33941 ft 464 kts 229°
2026-04-18 01:40 2.51091 111.61024 33938 ft 464 kts 229°
2026-04-18 01:41 2.46783 111.56220 33939 ft 464 kts 229°
2026-04-18 01:41 2.42479 111.51423 33935 ft 463 kts 229°
2026-04-18 01:42 2.38435 111.46918 33935 ft 463 kts 229°
2026-04-18 01:42 2.34340 111.42355 33937 ft 462 kts 229°
2026-04-18 01:43 2.31146 111.37553 33925 ft 458 kts 249°
2026-04-18 01:43 2.30076 111.33530 33917 ft 455 kts 265°
2026-04-18 01:44 2.30034 111.30381 33908 ft 454 kts 277°
2026-04-18 01:44 2.30650 111.27280 33711 ft 456 kts 288°
2026-04-18 01:44 2.31751 111.24298 33284 ft 458 kts 292°
2026-04-18 01:44 2.32927 111.21335 32598 ft 460 kts 292°
2026-04-18 01:45 2.34111 111.18363 31870 ft 461 kts 292°
2026-04-18 01:45 2.35298 111.15383 31165 ft 460 kts 292°
2026-04-18 01:45 2.36481 111.12417 30476 ft 460 kts 292°
2026-04-18 01:45 2.37666 111.09451 29773 ft 459 kts 292°
2026-04-18 01:46 2.38853 111.06490 28985 ft 458 kts 292°
2026-04-18 01:46 2.39986 111.03690 28244 ft 457 kts 292°
2026-04-18 01:46 2.41091 111.00981 27392 ft 459 kts 292°
2026-04-18 01:46 2.42292 110.98070 26287 ft 465 kts 292°
2026-04-18 01:47 2.43815 110.95178 24974 ft 477 kts 303°
2026-04-18 01:47 2.45946 110.92577 23654 ft 490 kts 314°
2026-04-18 01:47 2.48622 110.90429 22442 ft 496 kts 327°
2026-04-18 01:47 2.51682 110.88880 21634 ft 490 kts 338°
2026-04-18 01:48 2.54941 110.87984 20861 ft 484 kts 350°
2026-04-18 01:48 2.58275 110.87763 20105 ft 478 kts
2026-04-18 01:48 2.61550 110.88219 19352 ft 473 kts 13°
2026-04-18 01:48 2.64615 110.89325 18632 ft 467 kts 25°
2026-04-18 01:49 2.67331 110.91005 17875 ft 463 kts 37°
2026-04-18 01:49 2.69776 110.93072 16984 ft 459 kts 40°
2026-04-18 01:49 2.72172 110.95168 16125 ft 455 kts 40°
2026-04-18 01:49 2.74544 110.97248 15307 ft 451 kts 40°
2026-04-18 01:50 2.76889 110.99309 14515 ft 447 kts 40°
2026-04-18 01:50 2.79212 111.01357 13739 ft 443 kts 40°
2026-04-18 01:50 2.81514 111.03383 12924 ft 438 kts 40°
2026-04-18 01:50 2.83792 111.05383 12149 ft 433 kts 40°
2026-04-18 01:51 2.86044 111.07355 11373 ft 428 kts 40°
2026-04-18 01:51 2.88271 111.09300 10618 ft 423 kts 40°
2026-04-18 01:51 2.90481 111.11226 9895 ft 418 kts 40°
2026-04-18 01:51 2.92664 111.13118 9163 ft 413 kts 40°
2026-04-18 01:52 2.94825 111.14976 8466 ft 406 kts 40°
2026-04-18 01:52 2.96958 111.16798 7778 ft 400 kts 40°
2026-04-18 01:52 2.99069 111.18585 7111 ft 395 kts 40°
2026-04-18 01:52 3.00480 111.19771 6673 ft 391 kts 40°
2026-04-18 01:53 3.02550 111.21498 6012 ft 385 kts 40°
2026-04-18 01:53 3.04568 111.23180 5402 ft 379 kts 41°
2026-04-18 01:53 3.06158 111.25012 5115 ft 364 kts 58°
2026-04-18 01:54 3.07491 111.29549 4998 ft 325 kts 90°
2026-04-18 01:54 3.07209 111.31715 4996 ft 306 kts 104°
2026-04-18 01:54 3.06433 111.33631 4995 ft 289 kts 118°
2026-04-18 01:54 3.05287 111.35212 5000 ft 273 kts 132°
2026-04-18 01:55 3.03869 111.36446 5005 ft 275 kts 144°
2026-04-18 01:55 3.02300 111.37300 5002 ft 276 kts 157°
2026-04-18 01:55 3.00454 111.37819 5002 ft 277 kts 170°
2026-04-18 01:55 2.98524 111.37902 5000 ft 279 kts 184°
2026-04-18 01:56 2.96618 111.37536 4999 ft 280 kts 197°
2026-04-18 01:56 2.94839 111.36735 5003 ft 282 kts 210°
2026-04-18 01:56 2.93167 111.35713 4997 ft 281 kts 211°
2026-04-18 01:56 2.91491 111.34700 4999 ft 281 kts 210°
2026-04-18 01:57 2.89818 111.33698 4999 ft 281 kts 210°
2026-04-18 01:57 2.88138 111.32694 4999 ft 281 kts 210°
2026-04-18 01:57 2.86458 111.31691 5000 ft 281 kts 210°
2026-04-18 01:57 2.84859 111.30735 4997 ft 281 kts 210°
2026-04-18 01:58 2.83210 111.29748 5002 ft 281 kts 210°
2026-04-18 01:58 2.81530 111.28743 5002 ft 282 kts 210°
2026-04-18 01:58 2.79846 111.27735 5001 ft 282 kts 210°
2026-04-18 01:58 2.78164 111.26729 4997 ft 281 kts 210°
2026-04-18 01:59 2.76491 111.25727 4995 ft 281 kts 210°
2026-04-18 01:59 2.74808 111.24720 4998 ft 282 kts 210°
2026-04-18 01:59 2.73126 111.23713 4994 ft 282 kts 210°
2026-04-18 01:59 2.71449 111.22709 5000 ft 280 kts 210°
2026-04-18 02:00 2.69776 111.21708 5002 ft 281 kts 210°
2026-04-18 02:00 2.68100 111.20705 4997 ft 281 kts 210°
2026-04-18 02:00 2.66423 111.19702 4999 ft 281 kts 210°
2026-04-18 02:00 2.64742 111.18697 4997 ft 281 kts 210°
2026-04-18 02:01 2.63067 111.17693 4996 ft 281 kts 210°
2026-04-18 02:01 2.61391 111.16690 5000 ft 282 kts 210°
2026-04-18 02:01 2.59710 111.15683 4996 ft 281 kts 210°
2026-04-18 02:01 2.58034 111.14680 4999 ft 281 kts 210°
2026-04-18 02:02 2.56357 111.13677 5000 ft 281 kts 210°
2026-04-18 02:02 2.54678 111.12671 4999 ft 281 kts 210°
2026-04-18 02:02 2.52999 111.11666 4997 ft 281 kts 210°
2026-04-18 02:02 2.51324 111.10663 4998 ft 281 kts 210°
2026-04-18 02:03 2.49645 111.09658 5002 ft 282 kts 210°
2026-04-18 02:03 2.47966 111.08652 4997 ft 282 kts 210°
2026-04-18 02:03 2.46285 111.07646 4992 ft 280 kts 210°
2026-04-18 02:03 2.44612 111.06645 4994 ft 281 kts 211°
2026-04-18 02:04 2.42927 111.05637 5000 ft 283 kts 211°
2026-04-18 02:04 2.41266 111.04642 4996 ft 281 kts 211°
2026-04-18 02:04 2.39565 111.03624 4998 ft 281 kts 210°
2026-04-18 02:04 2.37915 111.02636 4999 ft 281 kts 211°
2026-04-18 02:05 2.36213 111.01618 5004 ft 282 kts 211°
2026-04-18 02:05 2.34555 111.00625 4999 ft 281 kts 211°
2026-04-18 02:05 2.32874 110.99619 4925 ft 283 kts 211°
2026-04-18 02:05 2.31186 110.98609 4807 ft 282 kts 211°
2026-04-18 02:06 2.29510 110.97606 4692 ft 280 kts 211°
2026-04-18 02:06 2.27847 110.96610 4568 ft 279 kts 210°
2026-04-18 02:06 2.26174 110.95608 4445 ft 280 kts 210°
2026-04-18 02:06 2.24503 110.94609 4321 ft 279 kts 211°
2026-04-18 02:07 2.22845 110.93617 4196 ft 278 kts 211°
2026-04-18 02:07 2.21177 110.92619 4080 ft 279 kts 210°
2026-04-18 02:07 2.19512 110.91622 3961 ft 279 kts 210°
2026-04-18 02:07 2.17849 110.90627 3833 ft 277 kts 210°
2026-04-18 02:08 2.16191 110.89635 3712 ft 278 kts 211°
2026-04-18 02:08 2.14532 110.88642 3598 ft 278 kts 210°
2026-04-18 02:08 2.12873 110.87649 3464 ft 278 kts 210°
2026-04-18 02:08 2.11215 110.86657 3354 ft 278 kts 211°
2026-04-18 02:09 2.09552 110.85663 3244 ft 279 kts 211°
2026-04-18 02:09 2.07891 110.84670 3111 ft 277 kts 211°
2026-04-18 02:09 2.06248 110.83685 2999 ft 274 kts 210°
2026-04-18 02:09 2.04610 110.82704 2874 ft 276 kts 210°
2026-04-18 02:10 2.02957 110.81716 2746 ft 278 kts 210°
2026-04-18 02:10 2.01296 110.80723 2635 ft 278 kts 210°
2026-04-18 02:10 1.99646 110.79735 2511 ft 275 kts 210°
2026-04-18 02:10 1.98007 110.78755 2381 ft 274 kts 210°
2026-04-18 02:11 1.96378 110.77780 2304 ft 272 kts 210°
2026-04-18 02:11 1.94757 110.76810 2300 ft 272 kts 210°
2026-04-18 02:11 1.93128 110.75836 2290 ft 273 kts 210°
2026-04-18 02:11 1.91499 110.74862 2297 ft 274 kts 210°
2026-04-18 02:12 1.89872 110.73889 2298 ft 273 kts 210°
2026-04-18 02:12 1.88234 110.72908 2295 ft 276 kts 210°
2026-04-18 02:12 1.86575 110.71917 2302 ft 278 kts 210°
2026-04-18 02:12 1.84948 110.70941 2294 ft 274 kts 210°
2026-04-18 02:13 1.83316 110.69965 2295 ft 273 kts 210°
2026-04-18 02:13 1.81685 110.68989 2299 ft 274 kts 210°
2026-04-18 02:13 1.80055 110.68015 2286 ft 272 kts 210°
2026-04-18 02:13 1.78434 110.67045 2288 ft 273 kts 210°
2026-04-18 02:14 1.76800 110.66069 2294 ft 274 kts 210°
2026-04-18 02:14 1.75156 110.65087 2287 ft 276 kts 210°
2026-04-18 02:14 1.73512 110.64104 2290 ft 274 kts 210°
2026-04-18 02:14 1.71878 110.63127 2290 ft 273 kts 210°
2026-04-18 02:15 1.70250 110.62154 2289 ft 273 kts 210°
2026-04-18 02:15 1.68629 110.61184 2287 ft 270 kts 210°
2026-04-18 02:15 1.67018 110.60220 2292 ft 270 kts 210°
2026-04-18 02:15 1.65405 110.59256 2293 ft 271 kts 210°
2026-04-18 02:16 1.63784 110.58287 2291 ft 273 kts 210°
2026-04-18 02:16 1.62151 110.57311 2295 ft 274 kts 210°
2026-04-18 02:16 1.60516 110.56333 2296 ft 274 kts 210°
2026-04-18 02:16 1.59012 110.55434 2296 ft 273 kts 210°
2026-04-18 02:17 1.57413 110.54449 2296 ft 272 kts 216°
2026-04-18 02:17 1.56099 110.53150 2302 ft 259 kts 234°
2026-04-18 02:17 1.55220 110.51632 2301 ft 246 kts 245°
2026-04-18 02:17 1.54568 110.50110 2301 ft 230 kts 250°
2026-04-18 02:18 1.53995 110.48615 2310 ft 235 kts 249°
2026-04-18 02:18 1.53503 110.47373 2292 ft 239 kts 249°
2026-04-18 02:18 1.52930 110.45922 1954 ft 244 kts 249°
2026-04-18 02:18 1.52309 110.44351 1642 ft 242 kts 249°
2026-04-18 02:19 1.51693 110.42794 1332 ft 239 kts 249°
2026-04-18 02:19 1.51145 110.41406 1062 ft 219 kts 249°
2026-04-18 02:19 1.50616 110.40068 792 ft 198 kts 249°
2026-04-18 02:19 1.50133 110.38848 532 ft 184 kts 249°
2026-04-18 02:20 1.49682 110.37705 316 ft 168 kts 249°
2026-04-18 02:20 1.49277 110.36660 52 ft 154 kts 249°
2026-04-18 02:20 1.48944 110.35809 65 ft 104 kts 248°
2026-04-18 02:20 1.48762 110.35359 74 ft 29 kts 246°
2026-04-18 02:21 1.48694 110.35189 73 ft 31 kts 249°
2026-04-18 02:21 1.48621 110.34998 74 ft 30 kts 249°
2026-04-18 02:21 1.48602 110.34832 73 ft 19 kts 279°
2026-04-18 02:21 1.48622 110.34718 77 ft 18 kts 279°
2026-04-18 02:22 1.48651 110.34598 74 ft 18 kts 311°
2026-04-18 02:22 1.48692 110.34518 70 ft 11 kts 259°
2026-04-18 02:22 1.48665 110.34459 75 ft 10 kts 246°
2026-04-18 02:22 1.48645 110.34405 70 ft 9 kts 251°
2026-04-18 02:23 1.48624 110.34354 71 ft 7 kts 245°
2026-04-18 02:23 1.48604 110.34308 76 ft 8 kts 248°
2026-04-18 02:23 1.48597 110.34264 74 ft 4 kts 306°
2026-04-18 02:23 1.48628 110.34250 71 ft 6 kts 338°
2026-04-18 02:24 1.48655 110.34239 72 ft 0 kts 338°
2026-04-18 02:24 1.48658 110.34237 74 ft 1 kts 338°